Change the Weather History Date:

Monday, October 8, 2012

  Actual Average (KTPA) Record (KTPA)
Temperature  
Mean Temperature 75 °F 78 °F  
Max Temperature 86 °F 86 °F 92 °F (1990)
Min Temperature 64 °F 70 °F 55 °F (1920)
Degree Days  
Heating Degree Days 0 0  
Month to date heating degree days 0  
Since 1 July heating degree days 0  
Cooling Degree Days 10 13  
Month to date cooling degree days 111  
Year to date cooling degree days 3127  
Growing Degree Days 25 (Base 50)    
Moisture  
Dew Point 68 °F    
Average Humidity 85    
Maximum Humidity 94    
Minimum Humidity 62    
Precipitation  
Precipitation 0.00 in 0.09 in 3.32 in (1934)
Month to date precipitation 0.83  
Year to date precipitation 40.85  
Sea Level Pressure  
Sea Level Pressure 29.99 in    
Wind  
Wind Speed 1 mph (ENE)    
Max Wind Speed 6 mph    
Max Gust Speed -    
Visibility 10 miles    
Events Rain    
T = Trace of Precipitation, MM = Missing Value Source: NWS Daily Summary

Daily Weather History Graph

Daily Weather History Graph

Search for Another Location

Airport or City:

Trip Planner

Search our weather history database for the weather conditions in past years. The results will help you decide how hot, cold, wet, or windy it might be!

Date:

Astronomy

Oct. 08, 2012 Rise Set
Actual Time 7:26 AM EDT 7:06 PM EDT
Civil Twilight 7:02 AM EDT 7:30 PM EDT
Nautical Twilight 6:35 AM EDT 7:57 PM EDT
Astronomical Twilight 6:08 AM EDT 8:24 PM EDT
Moon 12:37 AM EDT (10/8) 2:24 PM EDT (10/8)
Length of Visible Light 12h 27m
Length of Day
11h 40m
Waning Gibbous, 46% of the Moon is Illuminated
Oct 8
Waning Gibbous
Oct 15
New
Oct 21
First Quarter
Oct 29
Full
Nov 6
Last Quarter

Hourly Weather History & Observations

Time (EDT) Temp. Heat Index Dew Point Humidity Pressure Visibility Wind Dir Wind Speed Gust Speed Precip Events Conditions
12:15 AM 69.8 °F - 68.0 °F 94% 30.00 in 10.0 mi Calm Calm - N/A   Clear
12:35 AM 69.8 °F - 66.2 °F 88% 30.00 in 10.0 mi Calm Calm - N/A   Clear
12:55 AM 68.0 °F - 64.4 °F 88% 29.99 in 10.0 mi Calm Calm - N/A   Clear
1:15 AM 68.0 °F - 66.2 °F 94% 29.99 in 10.0 mi Calm Calm - N/A   Clear
1:35 AM 68.0 °F - 64.4 °F 88% 29.98 in 10.0 mi Calm Calm - N/A   Clear
1:55 AM 68.0 °F - 64.4 °F 88% 29.98 in 10.0 mi Calm Calm - N/A   Clear
2:15 AM 68.0 °F - 64.4 °F 88% 29.97 in 10.0 mi Calm Calm - N/A   Clear
2:35 AM 66.2 °F - 64.4 °F 94% 29.97 in 10.0 mi Calm Calm - N/A   Clear
2:55 AM 66.2 °F - 64.4 °F 94% 29.96 in 10.0 mi Calm Calm - N/A   Clear
3:15 AM 64.4 °F - 62.6 °F 94% 29.96 in 10.0 mi Calm Calm - N/A   Clear
3:35 AM 64.4 °F - 62.6 °F 94% 29.96 in 10.0 mi Calm Calm - N/A   Clear
3:55 AM 64.4 °F - 62.6 °F 94% 29.96 in 10.0 mi Calm Calm - N/A   Clear
4:15 AM 64.4 °F - 62.6 °F 94% 29.96 in 10.0 mi Calm Calm - N/A   Clear
4:35 AM 64.4 °F - 62.6 °F 94% 29.96 in 10.0 mi Calm Calm - N/A   Clear
4:55 AM 64.4 °F - 62.6 °F 94% 29.96 in 10.0 mi Calm Calm - N/A   Clear
5:15 AM 64.4 °F - 62.6 °F 94% 29.97 in 10.0 mi Calm Calm - N/A   Clear
5:35 AM 64.4 °F - 62.6 °F 94% 29.97 in 10.0 mi Calm Calm - N/A   Clear
5:55 AM 64.4 °F - 62.6 °F 94% 29.98 in 10.0 mi Calm Calm - N/A   Clear
6:15 AM 64.4 °F - 62.6 °F 94% 29.98 in 10.0 mi Calm Calm - N/A   Clear
6:35 AM 64.4 °F - 62.6 °F 94% 29.99 in 10.0 mi Calm Calm - N/A   Clear
6:55 AM 64.4 °F - 62.6 °F 94% 29.99 in 10.0 mi Calm Calm - N/A   Clear
7:15 AM 64.4 °F - 62.6 °F 94% 30.00 in 10.0 mi Calm Calm - N/A   Clear
7:35 AM 64.4 °F - 62.6 °F 94% 30.01 in 10.0 mi Calm Calm - N/A   Clear
7:55 AM 64.4 °F - 62.6 °F 94% 30.02 in 10.0 mi Calm Calm - N/A   Clear
8:15 AM 64.4 °F - 62.6 °F 94% 30.02 in 10.0 mi Calm Calm - N/A   Clear
8:35 AM 64.4 °F - 62.6 °F 94% 30.02 in 10.0 mi Calm Calm - N/A   Clear
8:55 AM 64.4 °F - 62.6 °F 94% 30.03 in 10.0 mi Calm Calm - N/A   Clear
9:15 AM 66.2 °F - 64.4 °F 94% 30.02 in 10.0 mi ENE 3.5 mph - N/A   Clear
9:35 AM 68.0 °F - 64.4 °F 88% 30.03 in 10.0 mi Calm Calm - N/A   Clear
9:55 AM 69.8 °F - 64.4 °F 83% 30.03 in 10.0 mi Calm Calm - N/A   Clear
10:15 AM 71.6 °F - 68.0 °F 88% 30.04 in 10.0 mi ESE 3.5 mph - N/A   Clear
10:35 AM 75.2 °F - 69.8 °F 83% 30.04 in 10.0 mi East 3.5 mph - N/A   Clear
10:55 AM 77.0 °F - 71.6 °F 83% 30.05 in 10.0 mi Calm Calm - N/A   Mostly Cloudy
11:15 AM 78.8 °F - 71.6 °F 78% 30.04 in 10.0 mi East 3.5 mph - N/A   Mostly Cloudy
11:35 AM 80.6 °F 85.4 °F 73.4 °F 79% 30.04 in 10.0 mi ENE 4.6 mph - N/A   Scattered Clouds
11:55 AM 82.4 °F 88.2 °F 73.4 °F 74% 30.03 in 10.0 mi ESE 5.8 mph - N/A   Clear
12:15 PM 82.4 °F 88.2 °F 73.4 °F 74% 30.03 in 10.0 mi South 4.6 mph - N/A   Clear
12:35 PM 84.2 °F 90.9 °F 73.4 °F 70% 30.02 in 10.0 mi SE 4.6 mph - N/A   Scattered Clouds
12:55 PM 84.2 °F 90.9 °F 73.4 °F 70% 30.01 in 10.0 mi Calm Calm - N/A   Scattered Clouds
1:15 PM 84.2 °F 90.9 °F 73.4 °F 70% 30.00 in 10.0 mi Calm Calm - N/A   Scattered Clouds
1:35 PM 86.0 °F 93.4 °F 73.4 °F 66% 29.99 in 10.0 mi Calm Calm - N/A   Scattered Clouds
1:55 PM 86.0 °F 91.8 °F 71.6 °F 62% 29.99 in 10.0 mi South 4.6 mph - N/A   Mostly Cloudy
2:35 PM 86.0 °F 91.8 °F 71.6 °F 62% 29.97 in 10.0 mi Calm Calm - N/A   Overcast
2:55 PM 82.4 °F 88.2 °F 73.4 °F 74% 29.96 in 10.0 mi North 3.5 mph - N/A   Mostly Cloudy
3:15 PM 80.6 °F 85.4 °F 73.4 °F 79% 29.96 in 10.0 mi North 5.8 mph - N/A   Mostly Cloudy
3:35 PM 80.6 °F 85.4 °F 73.4 °F 79% 29.95 in 10.0 mi Calm Calm - N/A Rain Rain
3:55 PM 80.6 °F 84.6 °F 71.6 °F 74% 29.95 in 10.0 mi Calm Calm - N/A   Light Drizzle
4:15 PM 80.6 °F 84.6 °F 71.6 °F 74% 29.96 in 10.0 mi WNW 4.6 mph - N/A   Scattered Clouds
4:35 PM 80.6 °F 84.6 °F 71.6 °F 74% 29.96 in 10.0 mi Calm Calm - N/A Rain Light Rain
4:55 PM 80.6 °F 84.6 °F 71.6 °F 74% 29.96 in 10.0 mi Calm Calm - N/A   Mostly Cloudy
5:15 PM 82.4 °F 87.2 °F 71.6 °F 70% 29.96 in 10.0 mi Calm Calm - N/A   Mostly Cloudy
5:35 PM 84.2 °F 88.4 °F 69.8 °F 62% 29.96 in 10.0 mi NW 4.6 mph - N/A   Scattered Clouds
5:55 PM 80.6 °F 84.6 °F 71.6 °F 74% 29.96 in 10.0 mi NNW 3.5 mph - N/A   Clear
6:15 PM 80.6 °F 84.6 °F 71.6 °F 74% 29.96 in 10.0 mi North 4.6 mph - N/A   Clear
6:35 PM 78.8 °F - 71.6 °F 78% 29.96 in 10.0 mi Calm Calm - N/A   Clear
6:55 PM 78.8 °F - 71.6 °F 78% 29.97 in 10.0 mi NE 3.5 mph - N/A   Mostly Cloudy
7:15 PM 77.0 °F - 71.6 °F 83% 29.98 in 10.0 mi Calm Calm - N/A   Mostly Cloudy
8:15 PM 73.4 °F - 69.8 °F 88% 29.99 in 10.0 mi Calm Calm - N/A   Clear
8:35 PM 71.6 °F - 69.8 °F 94% 29.99 in 10.0 mi Calm Calm - N/A   Clear
8:55 PM 71.6 °F - 68.0 °F 88% 29.99 in 7.0 mi Calm Calm - N/A   Clear
9:15 PM 69.8 °F - 68.0 °F 94% 30.00 in 10.0 mi Calm Calm - N/A   Clear
9:35 PM 69.8 °F - 68.0 °F 94% 30.01 in 7.0 mi Calm Calm - N/A   Clear
9:55 PM 69.8 °F - 68.0 °F 94% 30.03 in 5.0 mi Calm Calm - N/A   Clear
10:15 PM 69.8 °F - 68.0 °F 94% 30.03 in 5.0 mi Calm Calm - N/A   Mostly Cloudy
10:35 PM 69.8 °F - 68.0 °F 94% 30.04 in 7.0 mi Calm Calm - N/A   Overcast
10:55 PM 68.0 °F - 66.2 °F 94% 30.05 in 5.0 mi Calm Calm - N/A   Scattered Clouds
11:15 PM 68.0 °F - 66.2 °F 94% 30.05 in 5.0 mi Calm Calm - N/A   Clear
11:55 PM 68.0 °F - 64.4 °F 88% 30.04 in 3.0 mi Calm Calm - N/A   Scattered Clouds